TimeCST,TemperatureF,Dew PointF,Humidity,Sea Level PressureIn,VisibilityMPH,Wind Direction,Wind SpeedMPH,Gust SpeedMPH,PrecipitationIn,Events,Conditions,WindDirDegrees,DateUTC
12:13 AM,-14.8,-20.2,77,30.07,10.0,Calm,Calm,-,N/A,,Scattered Clouds,0,2013-01-23 06:13:00
12:33 AM,-14.8,-20.2,77,30.06,10.0,Calm,Calm,-,N/A,,Scattered Clouds,0,2013-01-23 06:33:00
12:53 AM,-14.8,-20.2,77,30.06,10.0,Calm,Calm,-,N/A,,Mostly Cloudy,0,2013-01-23 06:53:00
1:13 AM,-16.6,-22.0,76,30.06,10.0,Calm,Calm,-,N/A,,Scattered Clouds,0,2013-01-23 07:13:00
1:33 AM,-14.8,-20.2,77,30.05,10.0,SW,3.5,-,N/A,,Mostly Cloudy,220,2013-01-23 07:33:00
1:53 AM,-11.2,-16.6,77,30.06,10.0,Calm,Calm,-,N/A,,Overcast,0,2013-01-23 07:53:00
2:13 AM,-7.6,-14.8,71,30.06,10.0,Calm,Calm,-,N/A,,Mostly Cloudy,0,2013-01-23 08:13:00
2:33 AM,-5.8,-11.2,77,30.06,3.0,WSW,4.6,-,N/A,Snow,Light Snow,240,2013-01-23 08:33:00
2:53 AM,-4.0,-9.4,78,30.06,10.0,WSW,5.8,-,N/A,Snow,Light Snow,240,2013-01-23 08:53:00
3:13 AM,-4.0,-9.4,78,30.05,7.0,WSW,5.8,-,N/A,Snow,Light Snow,240,2013-01-23 09:13:00
3:33 AM,-2.2,-9.4,71,30.05,10.0,WSW,5.8,-,N/A,Snow,Light Snow,240,2013-01-23 09:33:00
3:53 AM,-2.2,-9.4,71,30.05,10.0,West,3.5,-,N/A,Snow,Light Snow,270,2013-01-23 09:53:00
4:13 AM,-2.2,-7.6,78,30.04,7.0,WSW,3.5,-,N/A,Snow,Light Snow,250,2013-01-23 10:13:00
4:33 AM,-2.2,-7.6,78,30.03,7.0,SW,5.8,-,N/A,Snow,Light Snow,230,2013-01-23 10:33:00
4:53 AM,-2.2,-7.6,78,30.02,10.0,SW,6.9,-,N/A,,Overcast,230,2013-01-23 10:53:00
5:13 AM,-0.4,-5.8,78,30.02,7.0,WSW,5.8,-,N/A,Snow,Light Snow,240,2013-01-23 11:13:00
5:33 AM,-0.4,-5.8,78,30.02,10.0,WSW,5.8,-,N/A,,Overcast,240,2013-01-23 11:33:00
5:53 AM,-0.4,-5.8,78,30.02,10.0,WSW,6.9,-,N/A,,Overcast,240,2013-01-23 11:53:00
6:13 AM,-0.4,-5.8,78,30.02,10.0,West,3.5,-,N/A,Snow,Light Snow,260,2013-01-23 12:13:00
6:33 AM,-0.4,-5.8,78,30.03,4.0,West,4.6,-,N/A,Snow,Light Snow,260,2013-01-23 12:33:00
6:53 AM,-0.4,-5.8,78,30.03,7.0,WSW,4.6,-,N/A,Snow,Light Snow,250,2013-01-23 12:53:00
7:13 AM,-0.4,-5.8,78,30.02,10.0,WSW,4.6,-,N/A,,Overcast,250,2013-01-23 13:13:00
7:33 AM,-0.4,-5.8,78,30.02,10.0,West,4.6,-,N/A,,Mostly Cloudy,260,2013-01-23 13:33:00
7:53 AM,-2.2,-7.6,78,30.03,10.0,West,5.8,-,N/A,Snow,Light Snow,270,2013-01-23 13:53:00
8:13 AM,-0.4,-7.6,72,30.05,7.0,NW,6.9,-,N/A,Snow,Light Snow,310,2013-01-23 14:13:00
8:33 AM,-0.4,-7.6,72,30.05,7.0,WNW,6.9,-,N/A,,Overcast,300,2013-01-23 14:33:00
8:53 AM,-2.2,-7.6,78,30.07,4.0,NW,8.1,16.1,N/A,,Haze,310,2013-01-23 14:53:00
9:13 AM,-2.2,-9.4,71,30.08,2.5,NW,10.4,17.3,N/A,,Haze,320,2013-01-23 15:13:00
9:33 AM,-2.2,-9.4,71,30.10,1.2,NW,6.9,17.3,N/A,Snow,Light Snow,320,2013-01-23 15:33:00
9:53 AM,-2.2,-13.0,60,30.12,5.0,NNW,12.7,21.9,N/A,,Haze,330,2013-01-23 15:53:00
10:13 AM,-4.0,-14.8,60,30.13,2.5,NNW,8.1,20.7,N/A,,Haze,340,2013-01-23 16:13:00
10:33 AM,-4.0,-14.8,60,30.15,5.0,NW,9.2,18.4,N/A,,Haze,320,2013-01-23 16:33:00
10:53 AM,-5.8,-14.8,65,30.17,2.5,NNW,6.9,20.7,N/A,,Haze,330,2013-01-23 16:53:00
11:13 AM,-5.8,-14.8,65,30.18,2.0,NW,11.5,19.6,N/A,,Haze,320,2013-01-23 17:13:00
11:33 AM,-5.8,-14.8,65,30.18,2.5,NW,8.1,19.6,N/A,,Haze,320,2013-01-23 17:33:00
11:53 AM,-5.8,-16.6,60,30.19,7.0,NNW,9.2,17.3,N/A,,Mostly Cloudy,340,2013-01-23 17:53:00
12:13 PM,-5.8,-16.6,60,30.20,4.0,NNW,12.7,20.7,N/A,,Haze,330,2013-01-23 18:13:00
12:33 PM,-4.0,-16.6,55,30.21,5.0,NW,11.5,19.6,N/A,,Haze,310,2013-01-23 18:33:00
12:53 PM,-5.8,-16.6,60,30.22,7.0,NW,11.5,18.4,N/A,,Mostly Cloudy,320,2013-01-23 18:53:00
1:13 PM,-5.8,-18.4,55,30.23,4.0,NNW,12.7,20.7,N/A,,Haze,330,2013-01-23 19:13:00
1:33 PM,-5.8,-16.6,60,30.24,3.0,NW,8.1,17.3,N/A,,Haze,320,2013-01-23 19:33:00
1:53 PM,-5.8,-18.4,55,30.26,5.0,NNW,12.7,20.7,N/A,,Haze,340,2013-01-23 19:53:00
2:13 PM,-5.8,-20.2,50,30.28,10.0,NNW,11.5,18.4,N/A,,Scattered Clouds,340,2013-01-23 20:13:00
2:33 PM,-5.8,-18.4,55,30.30,10.0,North,11.5,16.1,N/A,,Scattered Clouds,350,2013-01-23 20:33:00
2:53 PM,-5.8,-18.4,55,30.31,10.0,NNW,9.2,18.4,N/A,,Scattered Clouds,340,2013-01-23 20:53:00
3:13 PM,-7.6,-18.4,59,30.33,10.0,NNW,8.1,-,N/A,,Scattered Clouds,340,2013-01-23 21:13:00
3:33 PM,-7.6,-20.2,54,30.34,10.0,NNW,6.9,16.1,N/A,,Scattered Clouds,330,2013-01-23 21:33:00
3:53 PM,-7.6,-20.2,54,30.35,10.0,NNW,4.6,-,N/A,,Clear,340,2013-01-23 21:53:00
4:13 PM,-7.6,-20.2,54,30.37,10.0,NNW,6.9,-,N/A,,Clear,340,2013-01-23 22:13:00
4:33 PM,-7.6,-20.2,54,30.38,10.0,NNW,5.8,-,N/A,,Clear,330,2013-01-23 22:33:00
4:53 PM,-9.4,-20.2,59,30.41,10.0,NW,3.5,-,N/A,,Clear,310,2013-01-23 22:53:00
5:13 PM,-9.4,-20.2,59,30.42,10.0,NW,5.8,-,N/A,,Clear,320,2013-01-23 23:13:00
5:33 PM,-9.4,-20.2,59,30.43,10.0,NW,8.1,-,N/A,,Scattered Clouds,320,2013-01-23 23:33:00
5:53 PM,-9.4,-20.2,59,30.45,10.0,NW,5.8,-,N/A,,Scattered Clouds,320,2013-01-23 23:53:00
6:13 PM,-11.2,-20.2,64,30.46,7.0,NW,3.5,-,N/A,,Scattered Clouds,320,2013-01-24 00:13:00
6:33 PM,-11.2,-20.2,64,30.47,10.0,NW,4.6,-,N/A,,Clear,320,2013-01-24 00:33:00
6:52 PM,-13.0,-20.2,70,30.47,10.0,NW,3.5,-,N/A,,Clear,320,2013-01-24 00:52:00
7:13 PM,-13.0,-20.2,70,30.47,10.0,NW,3.5,-,N/A,,Clear,320,2013-01-24 01:13:00
7:33 PM,-14.8,-20.2,77,30.49,10.0,Calm,Calm,-,N/A,,Clear,0,2013-01-24 01:33:00
7:53 PM,-14.8,-22.0,70,30.49,10.0,NNW,4.6,-,N/A,,Clear,340,2013-01-24 01:53:00
8:13 PM,-14.8,-23.8,64,30.50,10.0,NNW,4.6,-,N/A,,Clear,340,2013-01-24 02:13:00
8:34 PM,-16.6,-23.8,70,30.50,10.0,North,4.6,-,N/A,,Clear,350,2013-01-24 02:34:00
9:13 PM,-16.6,-23.8,70,30.51,10.0,Calm,Calm,-,N/A,,Clear,0,2013-01-24 03:13:00
9:33 PM,-18.4,-23.8,76,30.52,10.0,Calm,Calm,-,N/A,,Clear,0,2013-01-24 03:33:00
9:53 PM,-18.4,-25.6,70,30.54,10.0,Calm,Calm,-,N/A,,Clear,0,2013-01-24 03:53:00
10:13 PM,-20.2,-27.4,69,30.54,10.0,Calm,Calm,-,N/A,,Clear,0,2013-01-24 04:13:00
10:33 PM,-22.0,-29.2,69,30.54,10.0,Calm,Calm,-,N/A,,Clear,0,2013-01-24 04:33:00
10:53 PM,-23.8,-29.2,76,30.56,10.0,Calm,Calm,-,N/A,,Clear,0,2013-01-24 04:53:00
11:13 PM,-25.6,-32.8,69,30.57,10.0,Calm,Calm,-,N/A,,Clear,0,2013-01-24 05:13:00
11:53 PM,-25.6,-34.6,63,30.58,10.0,Calm,Calm,-,N/A,,Clear,0,2013-01-24 05:53:00